Location: Dürabuch
(48.2640°N, 11.2185°E)
Time: 19:14:43
(UTC+00:00)

CZ-2D R/B - Pass Details

Date: 23 May 2025
Orbit: 790 x 841 km, 98.8° (Epoch: 16 June)

Event Time Altitude Azimuth Distance (km) Brightness Sun altitude
Rises 02:03:03 0° 12° (NNE) 3,407 6.6 -11.2°
Reaches altitude 10° 02:05:26 10° 11° (N) 2,470 5.6 -11.0°
Maximum altitude 02:10:53 70° 289° (WNW) 897 2.3 -10.4°
Enters shadow 02:16:05 11° 207° (SSW) 2,370 3.9 -9.8°
